Time,TemperatureF,DewpointF,PressureIn,WindDirection,WindDirectionDegrees,WindSpeedMPH,WindSpeedGustMPH,Humidity,HourlyPrecipIn,Conditions,Clouds,dailyrainin,SoftwareType,DateUTC
2013-03-11 00:00:00,50.5,34.5,30.15,ESE,102,5.0,9.0,54,0.00,,,0.00,Wunderground v.1.15,2013-03-11 04:00:00,
2013-03-11 00:05:00,50.5,34.5,30.14,SSE,163,5.0,9.0,54,0.00,,,0.00,Wunderground v.1.15,2013-03-11 04:05:00,
2013-03-11 00:10:00,50.4,34.4,30.14,SE,130,4.0,4.0,54,0.00,,,0.00,Wunderground v.1.15,2013-03-11 04:10:00,
2013-03-11 00:15:00,50.3,34.3,30.14,ESE,102,4.0,8.0,54,0.00,,,0.00,Wunderground v.1.15,2013-03-11 04:15:00,
2013-03-11 00:20:00,50.3,34.3,30.13,East,86,4.0,5.0,54,0.00,,,0.00,Wunderground v.1.15,2013-03-11 04:20:00,
2013-03-11 00:25:00,50.3,34.3,30.13,SSW,195,4.0,5.0,54,0.00,,,0.00,Wunderground v.1.15,2013-03-11 04:25:00,
2013-03-11 00:30:00,50.3,34.7,30.13,ESE,105,5.0,10.0,55,0.00,,,0.00,Wunderground v.1.15,2013-03-11 04:30:00,
2013-03-11 00:40:00,50.3,34.7,30.14,East,86,5.0,5.0,55,0.00,,,0.00,Wunderground v.1.15,2013-03-11 04:40:00,
2013-03-11 00:45:00,50.2,34.6,30.13,SW,229,4.0,5.0,55,0.00,,,0.00,Wunderground v.1.15,2013-03-11 04:45:00,
2013-03-11 00:50:00,50.1,35.0,30.13,SE,141,4.0,8.0,56,0.00,,,0.00,Wunderground v.1.15,2013-03-11 04:50:00,
2013-03-11 00:55:00,50.1,35.0,30.13,East,100,5.0,8.0,56,0.00,,,0.00,Wunderground v.1.15,2013-03-11 04:55:00,
2013-03-11 01:00:00,50.0,34.9,30.13,SSE,153,5.0,5.0,56,0.00,,,0.00,Wunderground v.1.15,2013-03-11 05:00:00,
2013-03-11 01:05:00,49.9,35.3,30.13,SE,136,5.0,7.0,57,0.00,,,0.00,Wunderground v.1.15,2013-03-11 05:05:00,
2013-03-11 03:55:00,48.0,43.4,30.08,East,100,6.0,10.0,84,0.00,,,0.00,Wunderground v.1.15,2013-03-11 07:55:00,
2013-03-11 04:00:00,48.0,43.4,30.08,SSE,154,7.0,7.0,84,0.00,,,0.00,Wunderground v.1.15,2013-03-11 08:00:00,
2013-03-11 04:05:00,47.9,43.6,30.08,ESE,122,7.0,8.0,85,0.00,,,0.00,Wunderground v.1.15,2013-03-11 08:05:00,
2013-03-11 04:10:00,47.9,43.6,30.08,ESE,122,6.0,6.0,85,0.00,,,0.00,Wunderground v.1.15,2013-03-11 08:10:00,
2013-03-11 04:15:00,47.9,43.6,30.08,ESE,110,6.0,6.0,85,0.00,,,0.00,Wunderground v.1.15,2013-03-11 08:15:00,
2013-03-11 04:20:00,47.8,43.5,30.07,ESE,117,5.0,5.0,85,0.00,,,0.00,Wunderground v.1.15,2013-03-11 08:20:00,
2013-03-11 04:25:00,47.7,43.7,30.07,East,88,7.0,7.0,86,0.00,,,0.00,Wunderground v.1.15,2013-03-11 08:25:00,
2013-03-11 04:30:00,47.7,43.7,30.06,South,177,7.0,7.0,86,0.00,,,0.00,Wunderground v.1.15,2013-03-11 08:30:00,
2013-03-11 04:35:00,47.6,43.6,30.06,East,82,6.0,10.0,86,0.00,,,0.00,Wunderground v.1.15,2013-03-11 08:35:00,
2013-03-11 04:40:00,47.5,43.8,30.06,ESE,103,6.0,8.0,87,0.00,,,0.00,Wunderground v.1.15,2013-03-11 08:40:00,
2013-03-11 04:45:00,47.5,43.8,30.05,SE,129,6.0,8.0,87,0.00,,,0.00,Wunderground v.1.15,2013-03-11 08:45:00,
2013-03-11 04:50:00,47.4,44.0,30.04,SW,226,8.0,10.0,88,0.00,,,0.00,Wunderground v.1.15,2013-03-11 08:50:00,
2013-03-11 04:55:00,47.3,43.9,30.04,ESE,115,8.0,10.0,88,0.00,,,0.00,Wunderground v.1.15,2013-03-11 08:55:00,
2013-03-11 05:00:00,47.3,44.2,30.05,SE,125,8.0,9.0,89,0.00,,,0.00,Wunderground v.1.15,2013-03-11 09:00:00,
2013-03-11 05:10:00,47.1,44.0,30.04,SE,134,8.0,8.0,89,0.00,,,0.00,Wunderground v.1.15,2013-03-11 09:10:00,
2013-03-11 05:15:00,47.1,44.0,30.04,SSE,165,7.0,8.0,89,0.00,,,0.00,Wunderground v.1.15,2013-03-11 09:15:00,
2013-03-11 05:20:00,47.1,44.3,30.04,SSE,165,7.0,7.0,90,0.00,,,0.00,Wunderground v.1.15,2013-03-11 09:20:00,
2013-03-11 05:25:00,47.0,44.2,30.03,SE,132,7.0,9.0,90,0.00,,,0.00,Wunderground v.1.15,2013-03-11 09:25:00,
2013-03-11 05:30:00,46.9,44.1,30.03,SSE,159,6.0,6.0,90,0.00,,,0.00,Wunderground v.1.15,2013-03-11 09:30:00,
2013-03-11 05:35:00,46.9,44.1,30.03,SE,146,6.0,9.0,90,0.00,,,0.00,Wunderground v.1.15,2013-03-11 09:35:00,
2013-03-11 05:45:00,46.8,44.0,30.04,East,83,6.0,8.0,90,0.00,,,0.00,Wunderground v.1.15,2013-03-11 09:45:00,
2013-03-11 05:50:00,46.7,43.9,30.03,East,91,7.0,14.0,90,0.00,,,0.00,Wunderground v.1.15,2013-03-11 09:50:00,
2013-03-11 05:55:00,46.7,44.2,30.02,East,93,7.0,14.0,91,0.00,,,0.00,Wunderground v.1.15,2013-03-11 09:55:00,
2013-03-11 06:00:00,46.6,44.1,30.03,ESE,110,6.0,16.0,91,0.00,,,0.00,Wunderground v.1.15,2013-03-11 10:00:00,
2013-03-11 06:05:00,46.5,44.0,30.02,SE,133,7.0,16.0,91,0.00,,,0.00,Wunderground v.1.15,2013-03-11 10:05:00,
2013-03-11 06:15:00,46.4,43.9,30.02,East,91,6.0,13.0,91,0.00,,,0.00,Wunderground v.1.15,2013-03-11 10:15:00,
2013-03-11 06:20:00,46.4,43.9,30.02,ESE,113,6.0,6.0,91,0.00,,,0.00,Wunderground v.1.15,2013-03-11 10:20:00,
2013-03-11 06:25:00,46.4,44.2,30.02,SSW,207,6.0,6.0,92,0.00,,,0.00,Wunderground v.1.15,2013-03-11 10:25:00,
2013-03-11 06:30:00,46.5,44.3,30.03,East,85,6.0,12.0,92,0.00,,,0.00,Wunderground v.1.15,2013-03-11 10:30:00,
2013-03-11 06:40:00,46.3,44.1,30.03,ESE,108,6.0,6.0,92,0.00,,,0.00,Wunderground v.1.15,2013-03-11 10:40:00,
2013-03-11 06:45:00,46.2,44.0,30.03,East,94,5.0,7.0,92,0.00,,,0.00,Wunderground v.1.15,2013-03-11 10:45:00,
2013-03-11 06:50:00,46.2,44.0,30.03,ENE,74,5.0,5.0,92,0.00,,,0.00,Wunderground v.1.15,2013-03-11 10:50:00,
2013-03-11 06:55:00,46.2,44.0,30.03,East,87,6.0,6.0,92,0.00,,,0.00,Wunderground v.1.15,2013-03-11 10:55:00,
2013-03-11 07:00:00,46.3,44.4,30.03,SSE,157,5.0,5.0,93,0.00,,,0.00,Wunderground v.1.15,2013-03-11 11:00:00,
2013-03-11 07:05:00,46.3,44.4,30.02,SE,141,4.0,8.0,93,0.00,,,0.00,Wunderground v.1.15,2013-03-11 11:05:00,
2013-03-11 07:10:00,46.4,44.5,30.02,South,169,5.0,7.0,93,0.00,,,0.00,Wunderground v.1.15,2013-03-11 11:10:00,
2013-03-11 07:15:00,46.4,44.5,30.03,East,98,7.0,7.0,93,0.00,,,0.00,Wunderground v.1.15,2013-03-11 11:15:00,
2013-03-11 07:25:00,46.4,44.5,30.03,East,91,6.0,7.0,93,0.00,,,0.00,Wunderground v.1.15,2013-03-11 11:25:00,
2013-03-11 07:30:00,46.5,44.6,30.02,East,83,8.0,17.0,93,0.00,,,0.00,Wunderground v.1.15,2013-03-11 11:30:00,
2013-03-11 07:35:00,46.6,44.7,30.02,ESE,121,10.0,17.0,93,0.00,,,0.00,Wunderground v.1.15,2013-03-11 11:35:00,
2013-03-11 07:45:00,46.8,44.9,30.03,ESE,105,9.0,10.0,93,0.00,,,0.00,Wunderground v.1.15,2013-03-11 11:45:00,
2013-03-11 07:55:00,46.9,44.7,30.03,ENE,66,8.0,10.0,92,0.00,,,0.00,Wunderground v.1.15,2013-03-11 11:55:00,
2013-03-11 08:00:00,46.9,44.7,30.03,East,94,9.0,9.0,92,0.00,,,0.00,Wunderground v.1.15,2013-03-11 12:00:00,
2013-03-11 08:05:00,46.8,44.9,30.03,SSW,200,9.0,9.0,93,0.00,,,0.00,Wunderground v.1.15,2013-03-11 12:05:00,
2013-03-11 08:10:00,46.7,44.8,30.03,SE,130,8.0,17.0,93,0.00,,,0.00,Wunderground v.1.15,2013-03-11 12:10:00,
2013-03-11 08:15:00,46.7,44.8,30.04,East,98,9.0,17.0,93,0.00,,,0.00,Wunderground v.1.15,2013-03-11 12:15:00,
2013-03-11 08:20:00,46.6,44.7,30.03,ESE,102,8.0,8.0,93,0.00,,,0.00,Wunderground v.1.15,2013-03-11 12:20:00,
2013-03-11 08:25:00,46.6,44.7,30.03,South,179,7.0,10.0,93,0.00,,,0.00,Wunderground v.1.15,2013-03-11 12:25:00,
2013-03-11 08:30:00,46.6,45.0,30.03,East,90,7.0,9.0,94,0.00,,,0.00,Wunderground v.1.15,2013-03-11 12:30:00,
2013-03-11 08:35:00,46.5,44.9,30.03,ESE,107,8.0,9.0,94,0.00,,,0.00,Wunderground v.1.15,2013-03-11 12:35:00,
2013-03-11 08:40:00,46.4,44.8,30.03,ESE,113,8.0,8.0,94,0.00,,,0.00,Wunderground v.1.15,2013-03-11 12:40:00,
2013-03-11 08:50:00,46.3,44.9,30.03,SE,125,8.0,8.0,95,0.00,,,0.00,Wunderground v.1.15,2013-03-11 12:50:00,
2013-03-11 08:55:00,46.2,44.8,30.03,SE,136,7.0,8.0,95,0.00,,,0.00,Wunderground v.1.15,2013-03-11 12:55:00,
2013-03-11 09:05:00,46.1,44.7,30.04,SSE,157,7.0,8.0,95,0.00,,,0.00,Wunderground v.1.15,2013-03-11 13:05:00,
2013-03-11 09:15:00,46.1,44.7,30.03,SE,125,5.0,8.0,95,0.00,,,0.00,Wunderground v.1.15,2013-03-11 13:15:00,
2013-03-11 09:20:00,46.0,44.6,30.02,SE,145,6.0,9.0,95,0.00,,,0.00,Wunderground v.1.15,2013-03-11 13:20:00,
2013-03-11 09:30:00,46.2,45.1,30.03,SE,124,7.0,8.0,96,0.00,,,0.00,Wunderground v.1.15,2013-03-11 13:30:00,
2013-03-11 09:35:00,46.3,45.2,30.03,East,98,8.0,10.0,96,0.00,,,0.00,Wunderground v.1.15,2013-03-11 13:35:00,
2013-03-11 09:40:00,46.3,44.9,30.02,ESE,110,8.0,15.0,95,0.00,,,0.00,Wunderground v.1.15,2013-03-11 13:40:00,
2013-03-11 09:45:00,46.3,44.9,30.02,SE,146,8.0,15.0,95,0.00,,,0.00,Wunderground v.1.15,2013-03-11 13:45:00,
2013-03-11 09:55:00,46.3,44.9,30.01,South,174,7.0,13.0,95,0.00,,,0.00,Wunderground v.1.15,2013-03-11 13:55:00,
2013-03-11 10:00:00,46.3,44.9,30.02,ENE,71,7.0,9.0,95,0.00,,,0.00,Wunderground v.1.15,2013-03-11 14:00:00,
2013-03-11 10:05:00,46.5,45.1,30.02,East,87,7.0,9.0,95,0.00,,,0.00,Wunderground v.1.15,2013-03-11 14:05:00,
2013-03-11 10:10:00,46.6,45.0,30.02,East,98,8.0,8.0,94,0.00,,,0.00,Wunderground v.1.15,2013-03-11 14:10:00,
2013-03-11 10:15:00,46.8,45.2,30.01,ENE,72,8.0,8.0,94,0.00,,,0.00,Wunderground v.1.15,2013-03-11 14:15:00,
2013-03-11 10:20:00,46.8,45.2,30.01,ESE,113,8.0,8.0,94,0.00,,,0.00,Wunderground v.1.15,2013-03-11 14:20:00,
2013-03-11 10:25:00,46.8,45.2,30.01,ESE,122,7.0,10.0,94,0.00,,,0.00,Wunderground v.1.15,2013-03-11 14:25:00,
2013-03-11 10:30:00,46.9,45.3,30.00,East,87,7.0,10.0,94,0.00,,,0.00,Wunderground v.1.15,2013-03-11 14:30:00,
2013-03-11 10:35:00,46.9,45.0,30.00,East,98,8.0,18.0,93,0.00,,,0.00,Wunderground v.1.15,2013-03-11 14:35:00,
2013-03-11 10:40:00,46.9,45.0,30.00,SSE,149,8.0,8.0,93,0.00,,,0.00,Wunderground v.1.15,2013-03-11 14:40:00,
2013-03-11 10:45:00,46.9,45.0,29.99,WSW,245,9.0,9.0,93,0.00,,,0.00,Wunderground v.1.15,2013-03-11 14:45:00,
2013-03-11 10:50:00,46.9,45.0,30.00,ESE,114,9.0,10.0,93,0.00,,,0.00,Wunderground v.1.15,2013-03-11 14:50:00,
2013-03-11 11:00:00,47.0,45.1,30.00,South,171,10.0,10.0,93,0.00,,,0.00,Wunderground v.1.15,2013-03-11 15:00:00,
2013-03-11 11:05:00,46.9,45.0,30.00,ESE,121,9.0,10.0,93,0.00,,,0.00,Wunderground v.1.15,2013-03-11 15:05:00,
2013-03-11 11:10:00,46.8,44.9,30.00,East,96,8.0,12.0,93,0.00,,,0.00,Wunderground v.1.15,2013-03-11 15:10:00,
2013-03-11 11:15:00,46.8,45.2,30.00,SSE,158,9.0,12.0,94,0.00,,,0.00,Wunderground v.1.15,2013-03-11 15:15:00,
2013-03-11 11:20:00,46.8,45.2,29.99,SW,222,8.0,9.0,94,0.00,,,0.00,Wunderground v.1.15,2013-03-11 15:20:00,
2013-03-11 11:25:00,46.8,45.2,29.99,SE,129,7.0,9.0,94,0.00,,,0.00,Wunderground v.1.15,2013-03-11 15:25:00,
2013-03-11 11:30:00,46.9,45.3,29.99,East,89,7.0,10.0,94,0.00,,,0.00,Wunderground v.1.15,2013-03-11 15:30:00,
2013-03-11 11:35:00,47.1,45.5,29.99,SSW,197,8.0,10.0,94,0.00,,,0.00,Wunderground v.1.15,2013-03-11 15:35:00,
2013-03-11 11:40:00,47.1,45.5,29.99,East,86,9.0,9.0,94,0.00,,,0.00,Wunderground v.1.15,2013-03-11 15:40:00,
2013-03-11 11:45:00,47.2,45.6,29.98,East,92,9.0,9.0,94,0.00,,,0.00,Wunderground v.1.15,2013-03-11 15:45:00,
2013-03-11 11:50:00,47.2,45.6,29.98,SE,141,8.0,9.0,94,0.00,,,0.00,Wunderground v.1.15,2013-03-11 15:50:00,
2013-03-11 11:55:00,47.3,45.7,29.98,ESE,105,8.0,9.0,94,0.00,,,0.00,Wunderground v.1.15,2013-03-11 15:55:00,
2013-03-11 12:00:00,47.1,45.5,29.98,SE,142,8.0,8.0,94,0.00,,,0.00,Wunderground v.1.15,2013-03-11 16:00:00,
2013-03-11 12:05:00,47.0,45.4,29.97,South,181,7.0,14.0,94,0.00,,,0.00,Wunderground v.1.15,2013-03-11 16:05:00,
2013-03-11 12:10:00,46.9,45.3,29.96,East,92,8.0,8.0,94,0.00,,,0.00,Wunderground v.1.15,2013-03-11 16:10:00,
2013-03-11 12:15:00,46.8,45.4,29.97,SSE,152,9.0,9.0,95,0.00,,,0.00,Wunderground v.1.15,2013-03-11 16:15:00,
2013-03-11 12:25:00,46.8,45.4,29.97,NNE,27,7.0,8.0,95,0.00,,,0.00,Wunderground v.1.15,2013-03-11 16:25:00,
2013-03-11 12:30:00,46.9,45.8,29.97,ESE,108,8.0,8.0,96,0.00,,,0.00,Wunderground v.1.15,2013-03-11 16:30:00,
2013-03-11 12:35:00,46.9,45.5,29.97,SE,136,8.0,8.0,95,0.00,,,0.00,Wunderground v.1.15,2013-03-11 16:35:00,
2013-03-11 12:40:00,46.9,45.5,29.97,SE,141,9.0,9.0,95,0.00,,,0.00,Wunderground v.1.15,2013-03-11 16:40:00,
2013-03-11 12:45:00,46.9,45.5,29.96,ESE,119,8.0,9.0,95,0.00,,,0.00,Wunderground v.1.15,2013-03-11 16:45:00,
2013-03-11 12:50:00,46.8,45.4,29.96,SSE,153,7.0,7.0,95,0.00,,,0.00,Wunderground v.1.15,2013-03-11 16:50:00,
2013-03-11 12:55:00,46.8,45.7,29.95,SE,133,8.0,9.0,96,0.00,,,0.00,Wunderground v.1.15,2013-03-11 16:55:00,
2013-03-11 13:00:00,46.8,45.7,29.95,SSE,163,9.0,9.0,96,0.00,,,0.00,Wunderground v.1.15,2013-03-11 17:00:00,
2013-03-11 13:05:00,46.8,45.7,29.95,SW,233,7.0,9.0,96,0.00,,,0.00,Wunderground v.1.15,2013-03-11 17:05:00,
2013-03-11 13:10:00,46.7,45.6,29.96,ESE,103,7.0,7.0,96,0.00,,,0.00,Wunderground v.1.15,2013-03-11 17:10:00,
2013-03-11 13:15:00,46.7,45.6,29.95,ESE,112,6.0,7.0,96,0.00,,,0.00,Wunderground v.1.15,2013-03-11 17:15:00,
2013-03-11 13:25:00,46.7,45.6,29.96,SE,128,6.0,9.0,96,0.00,,,0.00,Wunderground v.1.15,2013-03-11 17:25:00,
2013-03-11 13:30:00,46.6,45.5,29.96,ESE,114,7.0,7.0,96,0.00,,,0.00,Wunderground v.1.15,2013-03-11 17:30:00,
2013-03-11 13:35:00,46.5,45.4,29.95,ESE,114,7.0,7.0,96,0.00,,,0.00,Wunderground v.1.15,2013-03-11 17:35:00,
2013-03-11 13:40:00,46.5,45.4,29.94,SE,138,7.0,7.0,96,0.00,,,0.00,Wunderground v.1.15,2013-03-11 17:40:00,
2013-03-11 13:50:00,46.5,45.4,29.94,ESE,114,7.0,7.0,96,0.00,,,0.00,Wunderground v.1.15,2013-03-11 17:50:00,
2013-03-11 13:55:00,46.4,45.3,29.93,ESE,117,6.0,7.0,96,0.00,,,0.00,Wunderground v.1.15,2013-03-11 17:55:00,
2013-03-11 14:05:00,46.4,45.3,29.92,SSE,149,6.0,10.0,96,0.00,,,0.00,Wunderground v.1.15,2013-03-11 18:05:00,
2013-03-11 14:10:00,46.5,45.4,29.91,East,94,5.0,6.0,96,0.00,,,0.00,Wunderground v.1.15,2013-03-11 18:10:00,
2013-03-11 14:15:00,46.6,45.5,29.91,SE,124,5.0,8.0,96,0.00,,,0.00,Wunderground v.1.15,2013-03-11 18:15:00,
2013-03-11 14:20:00,46.7,45.6,29.90,East,89,6.0,8.0,96,0.00,,,0.00,Wunderground v.1.15,2013-03-11 18:20:00,
2013-03-11 14:25:00,46.8,45.7,29.89,ESE,117,5.0,8.0,96,0.00,,,0.00,Wunderground v.1.15,2013-03-11 18:25:00,
2013-03-11 14:30:00,46.9,45.8,29.89,East,93,5.0,5.0,96,0.00,,,0.00,Wunderground v.1.15,2013-03-11 18:30:00,
2013-03-11 14:35:00,47.0,45.9,29.89,ENE,65,5.0,7.0,96,0.00,,,0.00,Wunderground v.1.15,2013-03-11 18:35:00,
2013-03-11 14:45:00,47.5,46.1,29.89,ESE,117,6.0,6.0,95,0.00,,,0.00,Wunderground v.1.15,2013-03-11 18:45:00,
2013-03-11 14:50:00,47.9,46.5,29.89,East,95,6.0,6.0,95,0.00,,,0.00,Wunderground v.1.15,2013-03-11 18:50:00,
2013-03-11 14:55:00,48.2,46.6,29.88,SSE,151,5.0,6.0,94,0.00,,,0.00,Wunderground v.1.15,2013-03-11 18:55:00,
2013-03-11 15:00:00,48.5,46.9,29.88,SE,146,5.0,5.0,94,0.00,,,0.00,Wunderground v.1.15,2013-03-11 19:00:00,
2013-03-11 15:05:00,48.9,47.0,29.89,SW,217,6.0,7.0,93,0.00,,,0.00,Wunderground v.1.15,2013-03-11 19:05:00,
2013-03-11 15:10:00,49.2,47.3,29.89,SE,124,6.0,6.0,93,0.00,,,0.00,Wunderground v.1.15,2013-03-11 19:10:00,
2013-03-11 15:15:00,49.5,47.3,29.88,East,101,6.0,9.0,92,0.00,,,0.00,Wunderground v.1.15,2013-03-11 19:15:00,
2013-03-11 15:20:00,49.8,47.3,29.88,East,89,6.0,6.0,91,0.00,,,0.00,Wunderground v.1.15,2013-03-11 19:20:00,
2013-03-11 15:30:00,50.3,47.8,29.85,ESE,108,6.0,8.0,91,0.00,,,0.00,Wunderground v.1.15,2013-03-11 19:30:00,
2013-03-11 15:35:00,50.6,47.8,29.85,South,180,5.0,10.0,90,0.00,,,0.00,Wunderground v.1.15,2013-03-11 19:35:00,
2013-03-11 15:40:00,50.7,47.9,29.86,ESE,115,6.0,10.0,90,0.00,,,0.00,Wunderground v.1.15,2013-03-11 19:40:00,
2013-03-11 15:45:00,50.8,47.7,29.87,SSE,153,6.0,10.0,89,0.00,,,0.00,Wunderground v.1.15,2013-03-11 19:45:00,
2013-03-11 15:50:00,50.8,47.7,29.87,SSW,195,6.0,6.0,89,0.00,,,0.00,Wunderground v.1.15,2013-03-11 19:50:00,
2013-03-11 15:55:00,50.9,47.8,29.87,ENE,66,6.0,6.0,89,0.00,,,0.00,Wunderground v.1.15,2013-03-11 19:55:00,
2013-03-11 16:00:00,51.0,47.9,29.86,SSE,148,5.0,5.0,89,0.00,,,0.00,Wunderground v.1.15,2013-03-11 20:00:00,
2013-03-11 16:10:00,51.3,47.9,29.86,East,101,5.0,8.0,88,0.00,,,0.00,Wunderground v.1.15,2013-03-11 20:10:00,
2013-03-11 16:15:00,51.4,48.0,29.85,East,83,6.0,8.0,88,0.00,,,0.00,Wunderground v.1.15,2013-03-11 20:15:00,
2013-03-11 16:20:00,51.6,48.2,29.85,SSE,152,6.0,6.0,88,0.00,,,0.00,Wunderground v.1.15,2013-03-11 20:20:00,
2013-03-11 16:25:00,51.7,48.3,29.86,East,91,6.0,9.0,88,0.00,,,0.00,Wunderground v.1.15,2013-03-11 20:25:00,
2013-03-11 16:30:00,51.8,48.1,29.84,SSE,149,5.0,11.0,87,0.00,,,0.00,Wunderground v.1.15,2013-03-11 20:30:00,
2013-03-11 16:35:00,51.9,48.2,29.84,ESE,115,5.0,11.0,87,0.00,,,0.00,Wunderground v.1.15,2013-03-11 20:35:00,
2013-03-11 16:40:00,52.0,48.3,29.86,ENE,76,5.0,5.0,87,0.00,,,0.00,Wunderground v.1.15,2013-03-11 20:40:00,
2013-03-11 16:45:00,52.1,48.0,29.87,East,100,5.0,7.0,86,0.00,,,0.00,Wunderground v.1.15,2013-03-11 20:45:00,
2013-03-11 16:50:00,52.2,48.1,29.87,SSE,153,6.0,6.0,86,0.00,,,0.00,Wunderground v.1.15,2013-03-11 20:50:00,
2013-03-11 16:55:00,52.3,48.2,29.86,ESE,114,5.0,6.0,86,0.00,,,0.00,Wunderground v.1.15,2013-03-11 20:55:00,
2013-03-11 17:00:00,52.3,48.2,29.84,ESE,110,5.0,7.0,86,0.00,,,0.00,Wunderground v.1.15,2013-03-11 21:00:00,
2013-03-11 17:10:00,52.5,48.1,29.85,SE,141,4.0,4.0,85,0.00,,,0.00,Wunderground v.1.15,2013-03-11 21:10:00,
2013-03-11 17:20:00,52.9,48.5,29.83,ESE,104,5.0,5.0,85,0.00,,,0.00,Wunderground v.1.15,2013-03-11 21:20:00,
2013-03-11 17:30:00,52.7,48.6,29.83,ESE,105,5.0,5.0,86,0.00,,,0.00,Wunderground v.1.15,2013-03-11 21:30:00,
2013-03-11 17:35:00,52.7,48.3,29.83,ESE,102,4.0,5.0,85,0.00,,,0.00,Wunderground v.1.15,2013-03-11 21:35:00,
2013-03-11 17:40:00,52.7,48.6,29.82,SSE,151,4.0,4.0,86,0.00,,,0.00,Wunderground v.1.15,2013-03-11 21:40:00,
2013-03-11 17:45:00,52.6,48.5,29.82,ESE,123,4.0,6.0,86,0.00,,,0.00,Wunderground v.1.15,2013-03-11 21:45:00,
2013-03-11 17:50:00,52.6,48.5,29.82,South,170,5.0,5.0,86,0.00,,,0.00,Wunderground v.1.15,2013-03-11 21:50:00,
2013-03-11 17:55:00,52.5,48.7,29.83,SE,134,5.0,5.0,87,0.00,,,0.01,Wunderground v.1.15,2013-03-11 21:55:00,
2013-03-11 18:00:00,52.3,48.9,29.83,ESE,108,4.0,7.0,88,0.16,,,0.02,Wunderground v.1.15,2013-03-11 22:00:00,
2013-03-11 18:05:00,52.1,48.7,29.83,SW,224,3.0,7.0,88,0.08,,,0.02,Wunderground v.1.15,2013-03-11 22:05:00,
2013-03-11 18:10:00,51.9,48.8,29.84,East,100,4.0,6.0,89,0.06,,,0.03,Wunderground v.1.15,2013-03-11 22:10:00,
2013-03-11 18:15:00,51.7,48.9,29.84,ENE,74,4.0,6.0,90,0.17,,,0.04,Wunderground v.1.15,2013-03-11 22:15:00,
2013-03-11 18:20:00,51.4,48.9,29.84,SE,136,4.0,4.0,91,0.13,,,0.05,Wunderground v.1.15,2013-03-11 22:20:00,
2013-03-11 18:25:00,51.2,49.0,29.83,East,91,5.0,8.0,92,0.09,,,0.06,Wunderground v.1.15,2013-03-11 22:25:00,
2013-03-11 18:30:00,51.2,49.0,29.83,SSE,167,6.0,6.0,92,0.10,,,0.07,Wunderground v.1.15,2013-03-11 22:30:00,
2013-03-11 18:35:00,51.1,48.9,29.83,SE,125,6.0,6.0,92,0.10,,,0.07,Wunderground v.1.15,2013-03-11 22:35:00,
2013-03-11 18:40:00,51.0,49.0,29.83,SE,142,6.0,8.0,93,0.08,,,0.08,Wunderground v.1.15,2013-03-11 22:40:00,
2013-03-11 18:45:00,51.0,49.0,29.82,SW,219,5.0,8.0,93,0.07,,,0.08,Wunderground v.1.15,2013-03-11 22:45:00,
2013-03-11 18:50:00,50.9,48.9,29.83,SE,141,5.0,5.0,93,0.07,,,0.09,Wunderground v.1.15,2013-03-11 22:50:00,
2013-03-11 18:55:00,50.8,49.1,29.83,East,98,4.0,5.0,94,0.09,,,0.10,Wunderground v.1.15,2013-03-11 22:55:00,
2013-03-11 19:00:00,50.7,49.0,29.83,East,82,4.0,5.0,94,0.10,,,0.11,Wunderground v.1.15,2013-03-11 23:00:00,
2013-03-11 19:05:00,50.7,49.0,29.83,ENE,77,4.0,14.0,94,0.09,,,0.12,Wunderground v.1.15,2013-03-11 23:05:00,
2013-03-11 19:10:00,50.8,49.1,29.83,East,87,5.0,7.0,94,0.09,,,0.12,Wunderground v.1.15,2013-03-11 23:10:00,
2013-03-11 19:15:00,50.8,49.1,29.84,SE,146,6.0,7.0,94,0.08,,,0.13,Wunderground v.1.15,2013-03-11 23:15:00,
2013-03-11 19:20:00,50.7,49.0,29.84,ESE,115,4.0,5.0,94,0.19,,,0.15,Wunderground v.1.15,2013-03-11 23:20:00,
2013-03-11 19:25:00,50.6,48.9,29.84,SSE,166,4.0,5.0,94,0.21,,,0.17,Wunderground v.1.15,2013-03-11 23:25:00,
2013-03-11 19:30:00,50.5,49.1,29.84,ESE,110,5.0,9.0,95,0.18,,,0.18,Wunderground v.1.15,2013-03-11 23:30:00,
2013-03-11 19:35:00,50.6,49.2,29.84,ESE,105,5.0,9.0,95,0.14,,,0.19,Wunderground v.1.15,2013-03-11 23:35:00,
2013-03-11 19:40:00,50.6,49.2,29.84,SE,136,5.0,5.0,95,0.12,,,0.20,Wunderground v.1.15,2013-03-11 23:40:00,
2013-03-11 19:45:00,50.6,49.2,29.85,SE,129,4.0,5.0,95,0.13,,,0.21,Wunderground v.1.15,2013-03-11 23:45:00,
2013-03-11 19:50:00,50.6,49.2,29.85,SE,130,4.0,4.0,95,0.11,,,0.22,Wunderground v.1.15,2013-03-11 23:50:00,
2013-03-11 19:55:00,50.6,49.2,29.85,SE,134,5.0,5.0,95,0.12,,,0.23,Wunderground v.1.15,2013-03-11 23:55:00,
2013-03-11 20:00:00,50.6,49.2,29.85,SE,129,5.0,5.0,95,0.17,,,0.25,Wunderground v.1.15,2013-03-12 00:00:00,
2013-03-11 20:05:00,50.6,49.2,29.85,East,81,5.0,5.0,95,0.18,,,0.26,Wunderground v.1.15,2013-03-12 00:05:00,
2013-03-11 20:10:00,50.6,49.2,29.85,SSW,195,4.0,4.0,95,0.13,,,0.27,Wunderground v.1.15,2013-03-12 00:10:00,
2013-03-11 20:20:00,50.5,49.1,29.85,East,98,3.0,5.0,95,0.14,,,0.30,Wunderground v.1.15,2013-03-12 00:20:00,
2013-03-11 20:25:00,50.4,49.0,29.87,SSE,160,3.0,5.0,95,0.16,,,0.31,Wunderground v.1.15,2013-03-12 00:25:00,
2013-03-11 20:30:00,50.4,49.3,29.87,SE,140,3.0,3.0,96,0.39,,,0.35,Wunderground v.1.15,2013-03-12 00:30:00,
2013-03-11 20:35:00,50.4,49.3,29.87,SE,132,2.0,3.0,96,0.35,,,0.38,Wunderground v.1.15,2013-03-12 00:35:00,
2013-03-11 20:40:00,50.4,49.3,29.87,West,261,2.0,6.0,96,0.26,,,0.40,Wunderground v.1.15,2013-03-12 00:40:00,
2013-03-11 20:45:00,50.4,49.3,29.87,SSW,198,2.0,6.0,96,0.23,,,0.42,Wunderground v.1.15,2013-03-12 00:45:00,
2013-03-11 20:50:00,50.5,49.4,29.86,ESE,115,2.0,3.0,96,0.34,,,0.45,Wunderground v.1.15,2013-03-12 00:50:00,
2013-03-11 20:55:00,50.5,49.4,29.86,East,101,2.0,3.0,96,0.29,,,0.48,Wunderground v.1.15,2013-03-12 00:55:00,
2013-03-11 21:05:00,50.4,49.3,29.86,ESE,102,2.0,5.0,96,0.15,,,0.51,Wunderground v.1.15,2013-03-12 01:05:00,
2013-03-11 21:10:00,50.4,49.3,29.86,ESE,110,2.0,3.0,96,0.09,,,0.51,Wunderground v.1.15,2013-03-12 01:10:00,
2013-03-11 21:15:00,50.3,49.2,29.86,East,95,2.0,3.0,96,0.09,,,0.52,Wunderground v.1.15,2013-03-12 01:15:00,
2013-03-11 21:25:00,50.3,49.2,29.86,SE,125,3.0,3.0,96,0.11,,,0.54,Wunderground v.1.15,2013-03-12 01:25:00,
2013-03-11 21:35:00,50.3,49.2,29.86,East,98,2.0,4.0,96,0.10,,,0.56,Wunderground v.1.15,2013-03-12 01:35:00,
2013-03-11 21:40:00,50.3,49.2,29.85,East,82,2.0,3.0,96,0.67,,,0.59,Wunderground v.1.15,2013-03-12 01:40:00,
2013-03-11 21:45:00,50.2,49.1,29.85,East,88,2.0,4.0,96,0.21,,,0.61,Wunderground v.1.15,2013-03-12 01:45:00,
2013-03-11 21:50:00,50.2,49.1,29.85,East,97,3.0,4.0,96,0.11,,,0.62,Wunderground v.1.15,2013-03-12 01:50:00,
2013-03-11 21:55:00,50.3,49.5,29.84,ENE,77,3.0,4.0,97,0.10,,,0.62,Wunderground v.1.15,2013-03-12 01:55:00,
2013-03-11 22:00:00,50.3,49.5,29.85,East,96,3.0,3.0,97,0.05,,,0.62,Wunderground v.1.15,2013-03-12 02:00:00,
2013-03-11 22:05:00,50.4,49.6,29.84,East,85,3.0,3.0,97,0.05,,,0.63,Wunderground v.1.15,2013-03-12 02:05:00,
2013-03-11 22:10:00,50.4,49.6,29.85,East,87,4.0,4.0,97,0.08,,,0.64,Wunderground v.1.15,2013-03-12 02:10:00,
2013-03-11 22:15:00,50.5,49.7,29.85,SE,132,3.0,4.0,97,0.08,,,0.64,Wunderground v.1.15,2013-03-12 02:15:00,
2013-03-11 22:20:00,50.4,49.6,29.84,East,96,3.0,4.0,97,0.06,,,0.64,Wunderground v.1.15,2013-03-12 02:20:00,
2013-03-11 22:25:00,50.5,49.7,29.83,East,90,4.0,5.0,97,0.05,,,0.65,Wunderground v.1.15,2013-03-12 02:25:00,
2013-03-11 22:30:00,50.6,49.8,29.83,SE,125,5.0,5.0,97,0.08,,,0.66,Wunderground v.1.15,2013-03-12 02:30:00,
2013-03-11 22:35:00,50.6,49.5,29.83,ESE,102,6.0,6.0,96,0.08,,,0.66,Wunderground v.1.15,2013-03-12 02:35:00,
2013-03-11 22:40:00,50.7,49.6,29.83,ESE,119,5.0,5.0,96,0.08,,,0.67,Wunderground v.1.15,2013-03-12 02:40:00,
2013-03-11 22:45:00,50.6,49.5,29.83,ENE,75,4.0,5.0,96,0.07,,,0.67,Wunderground v.1.15,2013-03-12 02:45:00,
2013-03-11 22:50:00,50.6,49.5,29.83,ESE,105,5.0,5.0,96,0.04,,,0.67,Wunderground v.1.15,2013-03-12 02:50:00,
2013-03-11 22:55:00,50.6,49.5,29.83,East,100,5.0,7.0,96,0.04,,,0.68,Wunderground v.1.15,2013-03-12 02:55:00,
2013-03-11 23:00:00,50.6,49.5,29.82,ENE,65,5.0,5.0,96,0.04,,,0.68,Wunderground v.1.15,2013-03-12 03:00:00,
2013-03-11 23:05:00,50.5,49.4,29.83,East,91,5.0,5.0,96,0.04,,,0.68,Wunderground v.1.15,2013-03-12 03:05:00,
2013-03-11 23:10:00,50.5,49.4,29.83,East,96,3.0,3.0,96,0.00,,,0.68,Wunderground v.1.15,2013-03-12 03:10:00,
2013-03-11 23:15:00,50.5,49.4,29.82,ESE,115,3.0,4.0,96,0.00,,,0.68,Wunderground v.1.15,2013-03-12 03:15:00,
2013-03-11 23:20:00,50.5,49.4,29.81,East,83,3.0,3.0,96,0.00,,,0.68,Wunderground v.1.15,2013-03-12 03:20:00,
2013-03-11 23:25:00,50.6,49.5,29.81,ENE,75,4.0,6.0,96,0.00,,,0.69,Wunderground v.1.15,2013-03-12 03:25:00,
2013-03-11 23:30:00,50.6,49.2,29.81,SE,141,5.0,5.0,95,0.00,,,0.69,Wunderground v.1.15,2013-03-12 03:30:00,
2013-03-11 23:35:00,50.6,49.2,29.81,East,100,3.0,5.0,95,0.00,,,0.69,Wunderground v.1.15,2013-03-12 03:35:00,
2013-03-11 23:40:00,50.5,49.1,29.82,ESE,121,2.0,2.0,95,0.00,,,0.69,Wunderground v.1.15,2013-03-12 03:40:00,
2013-03-11 23:45:00,50.4,49.3,29.81,SE,138,2.0,4.0,96,0.00,,,0.70,Wunderground v.1.15,2013-03-12 03:45:00,
2013-03-11 23:50:00,50.4,49.3,29.81,WSW,248,2.0,2.0,96,0.10,,,0.71,Wunderground v.1.15,2013-03-12 03:50:00,
2013-03-11 23:55:00,50.3,49.2,29.81,East,100,2.0,3.0,96,0.17,,,0.72,Wunderground v.1.15,2013-03-12 03:55:00,